Theta_e
324 323 318 313 309 305 301 299 299 301 307 311 312 315 316 315 315 314 309 307 308 308 309 309 309 309 308 308 311 314 314 320 324 324 322 324 325 326 326 327 326 328 329 329 328 332 337 333 333 339 334 333 329 330
320 320 318 312 308 304 300 299 299 303 308 311 314 315 314 315 314 314 312 308 308 309 310 311 311 311 310 308 307 310 312 320 323 323 323 326 325 324 324 329 324 327 328 330 327 330 330 331 332 333 333 334 333 334
318 317 313 310 306 302 300 299 299 301 305 310 314 314 314 315 314 313 313 310 309 310 311 310 310 310 310 310 309 307 309 315 322 321 320 323 326 324 325 323 327 327 324 328 328 331 330 329 331 332 332 332 332 333
316 316 311 307 303 300 299 299 300 302 308 312 314 314 314 314 314 313 312 311 311 309 309 310 309 310 310 311 311 313 312 315 316 317 317 319 323 324 324 324 327 327 326 325 329 330 327 327 326 327 331 331 330 332
315 315 310 307 302 299 299 299 300 305 307 313 313 314 314 314 313 313 313 312 311 309 309 310 311 311 313 314 315 314 313 311 310 317 317 318 321 324 323 323 325 326 325 327 328 329 328 326 328 325 326 327 329 328
314 315 310 305 302 299 299 299 302 309 312 312 313 314 315 314 313 313 311 310 310 309 309 303 306 307 313 314 315 315 314 312 314 318 317 320 320 321 318 323 326 328 325 328 328 328 324 326 325 327 326 325 326 326
313 313 309 301 299 299 299 299 307 310 311 312 313 314 315 314 313 313 310 311 310 309 306 305 307 313 315 315 315 315 314 316 317 317 318 318 318 318 316 323 325 325 325 326 326 327 327 326 326 325 325 326 327 328
313 311 303 299 299 298 299 299 310 311 312 311 312 314 314 314 313 313 312 311 305 305 308 305 307 312 316 316 315 315 315 316 317 318 317 314 315 316 314 320 326 324 324 325 327 327 326 324 328 328 328 327 328 327
312 306 302 300 298 298 299 300 311 311 313 313 314 313 313 313 312 311 311 309 307 305 309 310 309 310 313 317 318 317 315 314 317 315 314 315 312 316 315 325 326 325 324 324 324 326 326 327 325 324 323 320 323 326
309 308 305 298 298 298 299 301 311 312 314 313 312 313 312 311 310 308 307 306 305 303 302 306 310 309 311 317 316 317 318 314 314 314 317 313 312 318 323 326 326 327 327 325 321 325 325 324 324 324 322 321 320 322
300 299 299 297 297 298 299 307 311 313 313 312 312 311 310 310 309 309 309 307 309 309 309 309 309 306 309 314 313 317 318 316 318 315 316 315 324 324 327 327 326 323 321 320 320 320 322 325 325 324 323 322 320 319
301 298 297 297 297 297 300 311 313 313 312 312 309 309 308 308 308 310 310 312 311 312 313 311 312 310 310 311 315 320 323 318 323 323 322 325 323 325 323 321 322 323 324 324 323 325 326 325 325 326 325 324 323 322
298 297 297 297 297 297 302 310 312 312 312 310 311 311 310 310 308 314 315 312 312 314 316 314 310 311 310 309 321 323 321 322 319 323 323 324 325 325 324 324 324 324 324 325 326 326 325 325 326 325 325 325 324 323
297 297 297 297 297 297 305 309 311 311 310 311 311 305 312 312 312 311 311 311 315 316 316 314 313 312 313 317 318 320 319 320 324 322 326 324 326 325 324 324 324 324 324 324 325 325 324 324 323 323 322 321 321 320
300 300 298 296 296 298 307 310 310 309 310 311 311 311 310 312 314 314 313 314 314 315 316 313 312 312 309 320 318 320 322 324 324 325 324 327 325 325 324 323 323 324 324 324 324 324 324 324 323 322 321 320 318 322
297 296 296 295 297 306 307 309 309 309 309 310 312 312 313 313 312 314 314 315 316 316 316 313 310 311 319 319 320 322 323 323 324 325 328 326 325 325 325 325 324 324 323 321 320 319 320 323 323 323 322 322 318 322
295 295 295 295 301 307 308 308 308 308 309 309 310 312 312 313 313 314 315 316 315 316 314 312 311 313 315 318 321 318 320 319 322 328 327 325 325 325 325 324 321 320 321 320 319 318 320 320 321 322 321 320 322 321
297 297 295 295 303 306 306 307 307 307 308 308 308 309 313 313 314 314 315 315 315 315 315 315 316 314 315 318 318 318 320 319 322 327 326 326 325 325 324 321 321 321 321 321 320 319 321 321 321 321 321 321 322 321
297 297 294 295 305 305 305 306 306 307 307 308 310 310 310 309 311 314 314 315 314 314 314 316 314 314 315 318 319 320 320 321 322 325 324 324 325 323 324 323 322 322 320 320 320 320 321 321 320 320 319 320 321 320
300 297 295 301 305 305 306 305 306 307 310 311 311 311 310 311 311 312 315 315 314 314 315 315 314 318 318 318 317 318 319 321 322 322 321 321 323 323 322 321 322 322 322 322 322 320 319 321 321 321 322 320 318 320
301 300 303 305 305 305 306 306 306 307 308 309 311 313 311 310 312 313 313 315 316 314 313 316 317 317 316 317 317 318 318 318 321 321 322 322 322 323 322 322 322 321 320 321 321 319 318 317 317 319 320 321 319 320
302 302 303 305 305 306 307 308 309 309 308 308 311 313 314 314 315 315 316 316 316 316 316 316 316 316 316 317 316 317 319 320 320 319 320 319 320 321 321 322 323 321 321 321 320 318 319 320 321 321 320 320 320 318
302 302 302 303 305 306 307 309 310 310 311 312 314 314 314 315 316 315 314 315 316 315 315 314 314 315 316 317 318 315 317 319 320 320 320 320 320 320 320 319 318 318 319 319 318 318 319 319 318 319 319 319 319 320
302 303 304 304 305 306 308 310 311 311 312 312 312 312 312 315 314 315 315 314 315 315 314 314 315 313 314 315 316 315 319 320 319 319 320 320 320 319 318 317 318 317 318 317 317 316 318 318 318 318 318 318 319 319
305 305 306 305 308 309 310 311 311 311 311 311 312 312 314 314 314 314 315 316 316 316 315 315 315 316 313 315 318 319 319 320 321 320 319 318 318 318 318 317 317 318 318 318 318 317 316 317 316 317 318 318 318 318
301 306 306 307 308 309 310 310 309 310 311 312 312 315 315 316 317 317 316 315 316 315 315 316 315 314 316 318 318 319 320 319 318 317 318 318 317 316 318 318 318 318 318 317 318 317 317 317 317 317 317 316 316 316
302 305 305 306 309 311 311 311 312 312 314 314 313 313 315 315 315 316 316 316 317 317 318 318 319 319 319 319 319 319 318 316 315 318 319 319 318 318 318 318 316 317 318 317 317 317 316 315 317 316 317 317 317 317
303 305 307 306 309 309 311 312 312 313 315 315 313 316 318 320 319 317 317 317 318 318 318 318 317 317 317 318 318 318 318 317 318 317 318 318 318 318 318 316 316 316 315 316 316 316 317 315 315 316 317 316 316 316
303 305 309 308 309 310 312 313 313 312 313 316 318 317 318 317 318 318 318 319 318 318 318 318 318 318 318 318 318 318 317 317 317 317 317 316 316 315 314 314 315 316 316 315 315 315 315 315 315 315 315 316 316 316
306 308 311 310 311 314 315 315 318 319 318 318 317 316 317 317 318 318 318 318 318 317 317 318 318 318 317 318 318 318 318 318 317 317 316 316 316 316 316 316 316 316 315 316 316 316 316 316 316 316 316 317 317 315
314 312 314 313 318 318 318 318 318 318 318 318 318 317 316 315 317 317 317 317 317 317 317 318 317 317 317 316 317 317 317 317 317 317 316 316 316 315 315 314 314 314 314 315 315 315 315 314 314 314 313 314 313 312
318 318 318 318 319 318 318 318 318 318 317 316 316 315 315 314 315 315 315 316 316 317 316 317 317 317 317 315 315 316 316 316 316 316 315 314 314 312 311 311 311 311 312 313 313 311 310 308 308 308 307 308 307 306
318 319 319 319 319 319 318 318 318 318 317 317 317 316 316 316 316 317 317 316 315 313 313 313 315 315 315 314 313 311 311 313 311 310 310 309 309 309 309 308 308 308 308 308 307 307 306 305 305 304 304 304 303 303
Wind_Speed
27 25 20 19 18 16 14 14 13 12 13 13 14 14 12 10 9 7 6 7 6 7 27 31 24 11 13 8 2 9 9 6 6 4 2 2 1 2 1 2 3 2 4 2 3 5 5 24 2 2 2 13 8 3
26 26 22 20 18 16 15 14 12 11 12 12 14 13 12 11 10 8 6 10 9 14 23 29 33 37 37 32 25 7 6 8 2 3 1 2 2 2 2 3 3 2 3 2 2 3 4 11 9 14 13 8 10 16
26 24 22 20 19 17 15 14 12 11 12 12 15 13 13 11 10 9 8 10 14 15 28 14 7 3 6 16 23 14 11 6 4 1 3 1 3 3 2 3 1 1 4 3 3 3 3 12 14 17 11 8 8 11
26 23 22 20 19 17 15 13 11 10 11 12 15 14 13 11 9 9 8 6 9 7 6 9 12 21 9 13 14 20 26 10 8 8 4 3 3 8 4 4 2 5 4 3 3 9 12 12 6 11 3 3 7 8
25 25 22 20 19 16 14 13 10 11 10 14 14 13 13 10 8 8 8 7 10 5 5 17 30 8 8 6 12 15 25 28 25 5 1 3 3 4 3 2 3 6 4 3 4 21 14 16 14 11 7 3 3 4
25 25 24 21 18 16 13 12 9 11 13 15 14 13 12 9 7 4 4 4 5 5 5 4 11 13 10 11 13 16 23 27 23 5 4 6 4 1 1 2 5 9 10 7 3 15 7 2 10 11 6 3 4 4
27 26 25 20 18 14 13 11 11 12 15 13 14 10 12 10 8 7 2 5 6 7 4 8 8 8 15 10 9 15 18 11 12 15 7 10 20 2 1 3 8 10 10 10 9 4 9 10 5 5 9 3 1 1
28 26 22 21 17 15 14 11 13 15 12 14 15 12 11 8 8 10 5 8 7 4 4 2 5 8 16 2 6 13 13 11 8 12 8 3 5 2 3 9 15 11 9 10 11 11 5 9 14 12 9 5 5 2
29 29 27 21 20 17 13 12 16 16 15 13 15 11 8 6 5 1 2 4 8 6 3 3 2 4 12 7 4 4 8 2 7 5 7 4 2 3 7 15 17 17 11 7 4 8 17 19 13 7 7 9 7 7
25 26 26 18 18 16 14 15 18 18 18 16 12 6 4 2 6 2 2 3 6 6 6 6 5 4 8 7 5 5 4 4 1 5 7 4 5 8 12 23 21 12 8 6 6 16 11 12 9 9 9 10 8 7
25 24 22 20 17 15 15 19 21 22 20 17 7 4 5 6 4 3 3 5 5 4 7 8 16 7 6 2 3 3 3 2 1 4 4 1 2 1 17 17 15 9 7 6 2 2 3 9 10 8 6 5 6 3
25 23 22 19 18 17 18 22 22 26 17 9 7 9 6 3 3 2 3 4 4 4 5 6 9 11 5 6 1 5 2 2 2 4 2 1 3 15 16 15 11 7 5 2 3 10 12 13 10 9 8 6 4 3
24 23 21 19 19 19 19 23 21 21 15 17 4 3 2 3 0 4 4 3 3 4 5 8 2 4 5 7 5 3 4 3 12 1 1 3 3 15 13 14 17 15 15 16 18 17 14 12 11 7 6 7 7 5
24 21 20 19 19 18 23 24 24 21 12 4 5 2 4 4 5 5 4 3 7 13 4 9 3 2 2 1 3 3 3 2 3 1 4 2 10 17 18 19 18 18 14 14 12 10 10 6 4 4 7 6 12 10
22 23 20 19 18 18 28 28 26 23 5 6 5 4 6 12 11 11 17 19 24 22 13 3 0 2 2 1 1 2 3 4 4 3 2 17 19 11 14 13 15 13 14 13 8 6 4 4 5 5 5 11 9 3
22 20 19 18 17 26 28 29 26 20 4 3 5 3 8 3 9 13 17 8 10 9 4 3 1 1 1 1 0 1 4 5 5 3 16 17 17 12 10 7 7 8 8 10 8 7 5 4 4 5 6 5 3 6
19 10 19 20 25 25 23 27 17 4 4 4 5 9 13 14 12 15 13 11 12 5 2 2 1 2 2 2 1 1 2 4 20 13 19 16 14 12 9 5 4 8 9 9 9 6 5 4 2 3 5 3 3 3
16 16 19 23 28 25 25 8 6 5 5 8 7 6 4 11 15 12 8 3 7 6 2 1 2 2 2 3 2 3 3 18 26 13 14 11 8 6 3 6 6 4 4 3 3 4 3 2 3 4 7 6 6 5
15 16 21 22 30 17 6 5 3 2 9 8 10 18 17 18 16 13 3 0 4 6 3 4 1 1 1 3 6 12 9 10 21 5 8 7 7 5 6 6 6 6 5 5 6 7 7 5 5 8 8 8 10 7
19 13 20 25 25 6 6 4 8 3 4 6 10 11 9 12 15 14 1 3 3 2 2 0 1 2 3 9 9 11 11 8 7 3 5 3 4 5 7 7 8 7 7 6 6 4 6 4 6 8 10 7 9 13
17 21 24 24 16 4 3 6 7 6 7 6 10 14 8 11 12 11 4 3 2 3 3 3 4 3 2 4 2 4 10 7 2 11 18 8 8 6 8 8 6 5 7 4 7 6 6 9 10 7 9 11 10 11
22 25 23 15 6 1 2 7 4 2 4 7 5 2 3 2 3 3 5 2 4 6 6 4 6 4 7 5 4 4 13 14 10 11 5 2 0 3 9 8 5 4 4 6 9 11 9 6 5 6 9 10 11 11
25 20 13 4 4 3 4 4 5 4 3 2 3 1 2 2 1 2 2 3 3 5 11 9 6 3 2 5 4 5 10 12 9 5 4 4 6 5 2 4 5 5 4 5 7 8 10 11 12 11 11 14 14 13
19 5 3 3 3 3 3 3 5 2 1 1 0 2 1 3 2 2 2 2 4 6 6 12 11 9 9 16 11 14 11 4 5 5 3 8 3 4 9 8 3 6 3 5 8 13 10 9 9 12 13 10 9 10
4 4 3 4 6 4 3 2 2 2 3 3 1 3 3 4 1 1 2 3 2 7 8 8 11 15 14 10 10 12 5 6 7 6 2 6 7 6 2 2 5 8 5 9 7 9 9 11 10 9 9 9 8 7
3 5 5 5 5 4 3 3 4 3 3 3 4 1 1 1 2 2 2 5 9 9 7 3 10 13 12 7 5 3 7 8 2 3 2 2 1 2 4 7 8 5 5 6 5 7 9 10 10 12 11 12 11 12
3 4 4 5 2 1 2 2 3 2 3 3 2 2 1 2 2 4 5 9 11 12 10 6 4 4 5 5 9 10 4 7 8 4 4 3 5 6 7 9 10 7 8 12 15 17 15 13 13 11 12 13 16 17
3 3 4 7 4 3 3 3 4 4 4 7 3 4 3 4 4 5 10 13 8 5 13 14 12 9 2 5 8 7 5 5 6 4 1 1 4 8 11 6 11 10 12 16 20 14 12 19 13 14 16 18 20 18
5 6 9 6 3 3 4 2 4 5 7 11 4 4 5 13 20 12 10 19 15 15 16 12 10 7 5 9 8 5 3 5 3 2 5 9 9 6 8 5 7 11 13 14 12 14 19 14 7 11 15 19 19 21
6 17 4 6 5 7 12 19 7 24 29 30 28 29 31 30 28 24 22 19 19 16 10 11 13 13 16 10 6 3 5 5 7 7 8 9 6 9 11 11 11 8 8 11 13 12 15 18 11 12 14 12 13 13
10 17 13 14 10 24 29 33 30 28 29 29 28 31 22 25 31 25 22 20 18 14 14 14 16 16 15 16 14 12 10 7 4 3 4 6 9 11 11 11 10 12 10 9 10 9 7 7 8 8 10 11 10 7
17 21 19 10 17 26 34 30 26 28 25 25 20 18 16 19 21 22 19 18 17 16 17 14 12 12 11 11 9 9 10 10 5 3 6 10 14 16 15 11 9 9 8 7 5 5 8 9 9 8 6 5 3 4
22 17 13 10 15 17 18 18 21 22 26 22 22 20 20 14 5 7 11 11 13 15 13 13 11 7 6 7 10 12 9 7 6 8 10 10 9 11 10 9 9 9 9 10 12 14 15 15 13 12 10 11 12 13
Wind_Direction
249 246 239 240 245 249 254 260 263 259 248 242 216 216 220 238 254 256 178 248 279 272 278 280 267 243 273 284 230 314 347 348 13 59 58 311 71 306 352 195 303 342 349 353 318 42 3 345 93 298 213 148 162 204
244 235 231 232 239 244 250 254 258 247 244 232 207 211 222 235 246 255 233 209 276 279 268 283 280 272 269 265 258 292 292 299 258 97 225 229 346 343 286 332 186 351 163 226 68 173 260 348 58 65 71 105 109 108
236 232 225 228 233 238 244 249 248 247 235 216 201 207 219 231 242 253 259 273 279 298 303 275 301 23 272 253 252 229 263 229 236 14 144 148 265 144 356 272 288 257 162 169 134 47 34 29 67 73 53 78 84 81
227 230 221 224 231 234 238 241 243 240 221 208 191 206 218 231 247 254 265 277 300 300 282 290 264 301 265 230 244 254 240 229 262 276 221 198 222 194 203 226 169 195 132 151 93 115 65 51 107 76 187 127 75 136
222 225 217 220 229 230 233 237 236 226 211 186 195 201 215 223 244 255 283 283 247 252 285 289 307 260 220 239 232 232 233 241 259 247 196 244 181 143 241 68 279 166 186 181 211 180 152 196 202 266 184 206 171 153
222 224 217 215 223 227 228 229 226 203 186 187 198 204 210 216 237 250 181 144 156 228 286 306 311 303 235 246 237 238 232 241 232 236 239 259 253 233 153 193 258 223 208 177 187 185 162 197 169 172 215 226 241 249
217 218 212 211 210 216 223 216 203 189 180 188 192 202 204 220 226 220 204 167 205 250 265 300 296 285 312 259 231 220 227 228 234 246 237 246 273 202 155 205 226 218 247 214 211 206 226 212 219 237 269 252 65 45
214 208 200 203 203 207 211 200 186 177 178 186 186 207 202 223 250 260 235 228 226 276 240 273 275 308 10 256 191 227 220 232 231 232 259 232 290 201 243 246 184 186 223 227 229 238 224 176 156 126 118 88 62 50
209 199 194 194 199 196 194 187 178 176 176 179 174 183 197 230 226 154 237 229 220 239 274 265 264 275 349 357 306 258 210 192 226 186 229 196 259 220 230 189 187 190 200 190 313 228 162 144 131 109 73 58 69 69
197 199 190 179 195 188 184 179 176 172 174 169 174 167 197 179 164 178 234 223 205 211 225 243 259 268 334 336 327 320 228 206 244 241 155 166 241 269 246 188 172 176 209 250 233 155 155 140 146 124 87 84 70 90
177 177 181 189 185 183 175 173 166 163 162 163 171 169 143 143 179 231 228 196 193 234 218 236 225 226 265 185 256 260 294 247 189 274 140 201 327 109 152 166 166 169 199 203 195 211 175 155 148 128 131 117 83 84
173 179 184 183 181 175 175 169 169 172 165 161 145 126 144 192 230 243 230 248 188 229 213 201 218 212 238 232 197 339 277 345 247 320 73 83 236 143 148 149 131 125 118 137 158 130 132 134 143 139 140 142 125 100
176 179 177 177 180 174 171 166 169 170 157 144 118 151 156 209 143 215 220 239 230 224 211 177 217 204 222 228 88 83 288 289 318 350 241 227 111 152 145 129 110 103 99 97 105 128 134 146 160 177 203 204 215 221
171 170 174 175 178 173 163 159 175 166 145 126 164 146 212 208 230 206 220 208 268 301 265 179 168 232 316 69 153 153 244 277 312 311 220 161 106 115 129 122 117 106 101 99 102 111 120 140 160 219 254 252 262 260
161 164 176 175 175 165 160 172 173 173 162 173 172 214 218 234 259 270 255 268 279 284 252 144 218 204 287 90 28 85 35 349 283 222 220 138 127 142 121 119 109 108 106 105 100 83 52 8 0 343 329 310 279 222
165 169 175 172 163 157 163 175 181 178 186 220 231 272 291 272 288 290 287 279 347 354 319 135 89 48 296 117 29 252 159 176 247 237 142 141 132 132 130 121 105 102 98 99 90 71 50 25 8 353 347 359 114 188
155 148 169 160 158 167 170 176 173 185 205 242 250 246 279 290 276 300 328 1 351 274 308 119 142 226 96 47 296 132 256 279 306 172 150 156 161 159 162 151 115 115 107 81 71 75 48 15 303 324 352 338 214 212
140 140 153 160 158 161 158 145 143 194 243 256 261 274 309 276 295 312 12 220 354 250 243 213 352 14 215 185 179 225 307 341 331 196 153 151 165 161 148 142 137 142 180 143 31 7 13 360 290 313 303 276 227 226
142 144 155 161 157 142 140 161 132 240 245 261 270 275 279 295 312 346 295 148 307 358 6 7 52 117 287 45 357 346 11 355 298 178 139 146 169 174 181 183 192 215 235 267 305 319 307 295 286 291 288 261 245 250
125 131 154 153 155 130 132 145 190 247 261 254 270 276 261 265 281 304 281 23 9 1 11 311 254 72 73 72 40 356 343 355 324 246 168 167 210 222 232 253 254 260 291 305 317 2 352 334 289 295 262 253 259 249
130 140 150 158 163 135 190 172 188 217 246 260 285 259 247 243 281 277 253 319 216 192 225 234 193 169 100 83 335 282 299 323 35 283 255 219 224 243 270 261 263 276 287 276 306 316 329 323 324 286 245 267 266 251
140 150 161 143 164 232 262 213 232 243 222 248 303 261 315 355 311 344 324 280 225 206 204 233 252 224 202 177 40 313 300 278 253 266 236 118 135 263 260 294 265 293 319 283 288 307 314 294 272 248 272 276 275 269
142 139 154 142 176 218 247 209 220 226 213 208 175 165 206 218 230 276 231 232 234 261 263 226 223 232 209 210 179 216 255 275 259 282 241 188 128 114 58 355 349 323 278 293 333 332 319 307 296 293 294 283 279 268
154 123 145 152 192 258 267 233 219 219 198 295 354 235 229 211 216 208 258 254 255 232 241 245 254 233 254 223 240 248 267 239 299 340 246 174 205 315 333 336 354 353 356 358 350 346 337 346 335 312 301 300 281 283
143 167 145 227 214 222 243 200 152 211 193 149 238 249 208 179 166 227 252 237 229 229 246 256 234 232 237 255 280 261 242 284 260 172 14 342 343 349 38 55 8 351 340 329 320 6 4 350 356 352 347 328 311 318
136 175 182 201 168 222 224 160 198 213 201 196 234 281 166 198 226 283 277 233 211 251 245 236 181 202 211 196 239 333 111 125 110 64 112 156 91 335 359 352 8 17 4 357 356 325 329 322 322 328 322 336 335 324
168 190 219 221 227 284 317 345 116 148 212 218 178 200 138 131 258 245 212 153 139 147 115 88 140 175 164 153 142 130 106 45 30 79 119 61 51 7 333 322 325 313 312 312 311 309 319 318 301 294 314 320 320 318
233 231 199 193 193 220 301 221 202 204 184 184 199 198 214 130 212 176 157 161 146 121 98 84 77 59 50 143 130 115 105 102 92 63 120 277 327 329 342 325 319 287 299 309 321 314 309 328 310 305 312 315 318 321
218 205 179 163 169 188 258 291 280 239 211 171 178 69 53 59 74 82 93 114 116 106 87 74 62 63 73 94 121 117 104 70 91 29 9 337 342 10 56 27 326 321 318 321 344 352 353 338 329 325 320 321 304 289
202 163 171 167 213 210 208 195 138 107 108 103 102 97 80 68 73 87 89 79 81 79 83 57 88 75 56 63 80 110 42 35 44 29 15 4 339 341 342 0 7 4 345 328 309 314 331 338 324 302 305 337 319 315
169 178 183 209 112 99 102 104 114 115 106 100 102 99 88 66 64 66 68 68 70 68 61 75 60 56 75 62 63 64 61 51 41 11 347 341 339 334 327 329 331 334 334 343 359 350 6 16 25 25 16 9 3 4
127 95 94 92 87 96 96 91 95 96 90 81 77 97 105 80 64 69 77 72 72 62 56 55 57 53 59 59 53 51 32 19 21 10 346 337 332 330 330 332 333 328 338 343 359 1 358 2 359 358 16 75 31 15
96 87 88 88 94 99 92 89 83 76 74 76 73 84 85 84 70 23 41 29 32 39 26 17 17 49 65 46 37 40 33 29 29 4 355 356 346 349 354 356 350 348 344 338 336 338 338 340 339 345 346 338 336 332